When you browse on this site, cookies collect data to enhance your experience and personalize the content and advertising you see.
Visit our Privacy Policy to learn more. By continuing to use the site, you agree to this use of cookies and data.
  • In Netherlands
  • List of Countries
  • For 7 days
  • Water Temperature
  • Weather Map
  • Weather Widgets
  • user-avatar
    Login

    Hourly Weather Amuzgi

    Today, 20 October, Sunday

    Time Temperature Precipitation Wind Pressure Humidity
    00:00 +10°C° 0 mm 1 mps 641 mmHg 75%
    01:00 +10°C° 0 mm 1 mps 641 mmHg 75%
    02:00 +10°C° 0 mm 1 mps 641 mmHg 74%
    03:00 +9°C° 0 mm 1 mps 641 mmHg 76%
    04:00 +9°C° 0 mm 1 mps 641 mmHg 76%
    05:00 +9°C° 0 mm 1 mps 641 mmHg 76%
    06:00 +9°C° 0 mm 1 mps 642 mmHg 77%
    07:00 +10°C° 0 mm 1 mps 642 mmHg 71%
    08:00 +12°C° 0 mm 1 mps 643 mmHg 66%
    09:00 +14°C° 0 mm 1 mps 644 mmHg 60%
    10:00 +14°C° 0 mm 2 mps 644 mmHg 59%
    11:00 +15°C° 0 mm 2 mps 644 mmHg 58%
    12:00 +16°C° 0 mm 3 mps 644 mmHg 57%
    13:00 +15°C° 0.1 mm 2 mps 644 mmHg 61%
    14:00 +14°C° 0.1 mm 2 mps 644 mmHg 64%
    15:00 +14°C° 0.1 mm 2 mps 643 mmHg 68%
    16:00 +12°C° 0.1 mm 1 mps 643 mmHg 76%
    17:00 +11°C° 0.1 mm 1 mps 643 mmHg 83%
    18:00 +8°C° 0.1 mm 0 mps 642 mmHg 91%
    19:00 +8°C° 0 mm 0 mps 642 mmHg 90%
    20:00 +8°C° 0 mm 0 mps 642 mmHg 89%
    21:00 +8°C° 0 mm 0 mps 642 mmHg 89%
    22:00 +8°C° 0 mm 0 mps 642 mmHg 88%
    23:00 +7°C° 0 mm 0 mps 642 mmHg 88%

    Tomorrow, 21 October, Monday

    Time Temperature Precipitation Wind Pressure Humidity
    00:00 +7°C° 0 mm 0 mps 642 mmHg 87%
    01:00 +7°C° 0 mm 0 mps 642 mmHg 86%
    02:00 +7°C° 0 mm 0 mps 642 mmHg 85%
    03:00 +8°C° 0 mm 1 mps 642 mmHg 84%
    04:00 +8°C° 0 mm 1 mps 642 mmHg 83%
    05:00 +6°C° 0 mm 0 mps 642 mmHg 82%
    06:00 +6°C° 0 mm 0 mps 642 mmHg 81%
    07:00 +9°C° 0 mm 1 mps 643 mmHg 76%
    08:00 +11°C° 0 mm 1 mps 643 mmHg 70%
    09:00 +12°C° 0 mm 1 mps 644 mmHg 65%
    10:00 +13°C° 0 mm 2 mps 644 mmHg 65%
    11:00 +13°C° 0 mm 2 mps 644 mmHg 65%
    12:00 +14°C° 0 mm 2 mps 644 mmHg 65%
    13:00 +13°C° 0 mm 2 mps 644 mmHg 69%
    14:00 +13°C° 0 mm 2 mps 644 mmHg 73%
    15:00 +12°C° 0 mm 2 mps 643 mmHg 77%
    16:00 +11°C° 0 mm 1 mps 643 mmHg 83%
    17:00 +10°C° 0 mm 1 mps 643 mmHg 88%
    18:00 +8°C° 0 mm 0 mps 642 mmHg 94%
    19:00 +7°C° 0 mm 0 mps 642 mmHg 93%
    20:00 +7°C° 0 mm 0 mps 642 mmHg 92%
    21:00 +7°C° 0 mm 0 mps 642 mmHg 92%
    22:00 +7°C° 0 mm 0 mps 642 mmHg 91%
    23:00 +7°C° 0 mm 0 mps 642 mmHg 90%

    Day after tomorrow, 22 October, Tuesday

    Time Temperature Precipitation Wind Pressure Humidity
    00:00 +6°C° 0 mm 0 mps 641 mmHg 89%
    01:00 +6°C° 0 mm 0 mps 641 mmHg 87%
    02:00 +6°C° 0 mm 0 mps 641 mmHg 86%
    03:00 +6°C° 0 mm 0 mps 641 mmHg 85%
    04:00 +6°C° 0 mm 0 mps 641 mmHg 84%
    05:00 +6°C° 0 mm 0 mps 641 mmHg 82%
    06:00 +7°C° 0 mm 1 mps 641 mmHg 81%
    07:00 +8°C° 0 mm 1 mps 641 mmHg 77%
    08:00 +10°C° 0 mm 1 mps 642 mmHg 72%
    09:00 +12°C° 0 mm 1 mps 643 mmHg 68%
    10:00 +12°C° 0 mm 2 mps 643 mmHg 68%
    11:00 +13°C° 0 mm 2 mps 643 mmHg 68%
    12:00 +13°C° 0 mm 2 mps 643 mmHg 69%
    13:00 +13°C° 0 mm 2 mps 643 mmHg 72%
    14:00 +12°C° 0 mm 2 mps 642 mmHg 75%
    15:00 +12°C° 0 mm 2 mps 642 mmHg 79%
    16:00 +11°C° 0 mm 1 mps 642 mmHg 83%
    17:00 +10°C° 0 mm 1 mps 642 mmHg 88%
    18:00 +8°C° 0 mm 0 mps 641 mmHg 93%
    19:00 +8°C° 0 mm 0 mps 641 mmHg 92%
    20:00 +7°C° 0 mm 0 mps 641 mmHg 92%
    21:00 +7°C° 0 mm 0 mps 641 mmHg 92%
    22:00 +7°C° 0 mm 0 mps 641 mmHg 92%
    23:00 +6°C° 0 mm 0 mps 641 mmHg 91%

    23 October, Wednesday

    Time Temperature Precipitation Wind Pressure Humidity
    00:00 +6°C° 0 mm 0 mps 640 mmHg 91%
    01:00 +6°C° 0 mm 0 mps 640 mmHg 91%
    02:00 +5°C° 0 mm 0 mps 640 mmHg 90%
    03:00 +5°C° 0 mm 0 mps 640 mmHg 90%
    04:00 +5°C° 0 mm 0 mps 640 mmHg 90%
    05:00 +5°C° 0 mm 0 mps 640 mmHg 89%
    06:00 +5°C° 0 mm 0 mps 640 mmHg 89%
    07:00 +7°C° 0 mm 1 mps 641 mmHg 84%
    08:00 +9°C° 0 mm 1 mps 641 mmHg 79%
    09:00 +10°C° 0 mm 1 mps 642 mmHg 74%
    10:00 +10°C° 0 mm 2 mps 642 mmHg 74%
    11:00 +10°C° 0 mm 2 mps 642 mmHg 74%
    12:00 +12°C° 0 mm 2 mps 642 mmHg 74%
    13:00 +10°C° 0 mm 2 mps 642 mmHg 78%
    14:00 +9°C° 0 mm 2 mps 641 mmHg 82%
    15:00 +9°C° 0 mm 2 mps 641 mmHg 86%
    16:00 +9°C° 0 mm 1 mps 641 mmHg 88%
    17:00 +9°C° 0 mm 1 mps 641 mmHg 90%
    18:00 +7°C° 0 mm 0 mps 641 mmHg 91%
    19:00 +7°C° 0 mm 0 mps 641 mmHg 91%
    20:00 +7°C° 0 mm 0 mps 641 mmHg 91%
    21:00 +6°C° 0 mm 0 mps 641 mmHg 91%
    22:00 +6°C° 0 mm 0 mps 641 mmHg 90%
    23:00 +6°C° 0 mm 0 mps 641 mmHg 90%

    24 October, Thursday

    Time Temperature Precipitation Wind Pressure Humidity
    00:00 +5°C° 0 mm 0 mps 640 mmHg 90%
    01:00 +5°C° 0 mm 0 mps 640 mmHg 89%
    02:00 +5°C° 0 mm 0 mps 640 mmHg 87%
    03:00 +5°C° 0 mm 0 mps 640 mmHg 86%
    04:00 +5°C° 0 mm 0 mps 640 mmHg 85%
    05:00 +5°C° 0 mm 0 mps 640 mmHg 84%
    06:00 +6°C° 0 mm 1 mps 640 mmHg 83%
    07:00 +7°C° 0 mm 1 mps 640 mmHg 76%
    08:00 +9°C° 0 mm 1 mps 641 mmHg 70%
    09:00 +11°C° 0 mm 1 mps 642 mmHg 64%
    10:00 +12°C° 0 mm 2 mps 642 mmHg 64%
    11:00 +12°C° 0 mm 2 mps 641 mmHg 64%
    12:00 +12°C° 0 mm 3 mps 641 mmHg 63%
    13:00 +12°C° 0 mm 2 mps 641 mmHg 67%
    14:00 +12°C° 0 mm 2 mps 641 mmHg 70%
    15:00 +12°C° 0 mm 2 mps 640 mmHg 74%
    16:00 +9°C° 0 mm 2 mps 640 mmHg 79%
    17:00 +9°C° 0 mm 1 mps 640 mmHg 85%
    18:00 +8°C° 0 mm 1 mps 639 mmHg 90%
    19:00 +8°C° 0 mm 1 mps 639 mmHg 87%
    20:00 +7°C° 0 mm 0 mps 639 mmHg 85%
    21:00 +7°C° 0 mm 0 mps 639 mmHg 82%
    22:00 +8°C° 0 mm 1 mps 639 mmHg 80%
    23:00 +7°C° 0 mm 1 mps 639 mmHg 77%

    25 October, Friday

    Time Temperature Precipitation Wind Pressure Humidity
    00:00 +7°C° 0 mm 1 mps 639 mmHg 75%
    01:00 +7°C° 0 mm 1 mps 638 mmHg 71%
    02:00 +7°C° 0 mm 1 mps 638 mmHg 68%
    03:00 +7°C° 0 mm 1 mps 638 mmHg 64%
    04:00 +7°C° 0 mm 1 mps 638 mmHg 62%
    05:00 +7°C° 0 mm 1 mps 638 mmHg 59%
    06:00 +7°C° 0 mm 1 mps 638 mmHg 56%
    07:00 +9°C° 0 mm 1 mps 639 mmHg 52%
    08:00 +11°C° 0 mm 1 mps 640 mmHg 49%
    09:00 +12°C° 0 mm 1 mps 640 mmHg 45%
    10:00 +13°C° 0 mm 1 mps 640 mmHg 47%
    11:00 +14°C° 0 mm 2 mps 640 mmHg 48%
    12:00 +15°C° 0 mm 2 mps 641 mmHg 50%
    13:00 +14°C° 0 mm 2 mps 640 mmHg 54%
    14:00 +14°C° 0 mm 2 mps 640 mmHg 59%
    15:00 +14°C° 0 mm 2 mps 640 mmHg 63%
    16:00 +12°C° 0 mm 2 mps 639 mmHg 72%
    17:00 +10°C° 0 mm 1 mps 639 mmHg 81%
    18:00 +9°C° 0 mm 1 mps 638 mmHg 90%
    19:00 +9°C° 0 mm 1 mps 639 mmHg 88%
    20:00 +8°C° 0 mm 1 mps 639 mmHg 86%
    21:00 +8°C° 0 mm 1 mps 639 mmHg 84%
    22:00 +8°C° 0 mm 1 mps 638 mmHg 81%
    23:00 +8°C° 0 mm 1 mps 638 mmHg 79%
    Show more